Regional Weather Roundup
Issued by NWS Charleston, WV

Home | Current Version | Previous Version | Graphics & Text | Print | Product List | Glossary On
Versions: 1 2 3 4 5 6 7 8 9 10 11 12 13 14 15 16 17 18 19 20 21 22 23 24 25 26 27 28 29 30 31 32 33 34 35 36 37 38 39 40 41 42 43 44 45 46 47 48 49 50
807
ASUS41 KRLX 191410
RWRRLX
West Virginia Regional Weather Roundup
National Weather Service Charleston WV
900 AM EST THU JAN 19 2017

Note: "fair" indicates few or no clouds below 12,000 feet with no
significant weather and/or obstructions to visibility.

WVZ003-191500-
Northern Panhandle of West Virginia

CITY           SKY/WX    TMP DP  RH WIND       PRES   REMARKS
WHEELING       CLOUDY    36  34  92 SW6       30.10S
$$

WVZ009-191500-
Northwest West Virginia

CITY           SKY/WX    TMP DP  RH WIND       PRES   REMARKS
PARKERSBURG    CLOUDY    40  37  89 CALM      30.13S
$$

WVZ006-191500-
Western West Virginia

CITY           SKY/WX    TMP DP  RH WIND       PRES   REMARKS
HUNTINGTON     CLOUDY    39  37  92 E5        30.09F
$$

WVZ015-191500-
West Central West Virginia

CITY           SKY/WX    TMP DP  RH WIND       PRES   REMARKS
CHARLESTON     CLOUDY    43  38  82 CALM      30.11S
$$

WVZ022-031-191500-
North Central West Virginia

CITY           SKY/WX    TMP DP  RH WIND       PRES   REMARKS
CLARKSBURG     CLOUDY    39  36  89 CALM      30.11R
MORGANTOWN     CLOUDY    39  35  86 SW3       30.12R
$$

WVZ025-035-042-045-191500-
Southern West Virginia

CITY           SKY/WX    TMP DP  RH WIND       PRES   REMARKS
BECKLEY        CLOUDY    37  36  96 CALM      30.10R FOG
LOGAN          FOG       37  37 100 CALM      30.08F VSB 1/4
BLUEFIELD      MOSUNNY   37  36  96 CALM      30.08F
LEWISBURG      CLOUDY    38  35  91 SW5       30.10R
$$

WVZ047-191500-
Northern Mountains of West Virginia

CITY           SKY/WX    TMP DP  RH WIND       PRES   REMARKS
ELKINS         CLOUDY    39  33  79 CALM      30.09R
$$

WVZ052-191500-
Eastern Panhandle of West Virginia

CITY           SKY/WX    TMP DP  RH WIND       PRES   REMARKS
MARTINSBURG    CLOUDY    44  35  70 NW3       30.09S
PETERSBURG     CLOUDY    32  31  97 CALM      30.12R FOG
$$




USA.gov is the U.S. government's official web portal to all federal, state and local government web resources and services.